Location: Grandview
(34.8900°N, 117.1058°W)
Time: 01:20:16
(UTC-07:00)

Envisat - Pass Details

Date: 07 October 2017
Orbit: 764 x 766 km, 98.2° (Epoch: 20 October)

Event Time Altitude Azimuth Distance (km) Brightness Sun altitude
Exits shadow 19:58:36 28° 48° (NE) 1,407 4.0 -20.3°
Drops below altitude 10° 20:02:00 10° 10° (N) 2,306 5.4 -21.0°
Sets 20:04:32 0° 0° (N) 3,235 6.3 -21.5°
